Wind_Speed
85 81 78 76 79 74 76 70 67 70 80 92 98 103 108 106 114 115 113 112 111 107 106 101 101 100 97 99 99 98 93 90 89 89 84 86 80 77 74 73 75 72 68 66 63
92 88 84 82 82 82 82 78 75 75 72 82 87 96 92 102 108 110 112 111 109 107 105 103 101 100 100 98 99 101 100 99 96 93 90 90 86 85 79 77 80 78 75 70 67
100 97 93 92 91 89 87 81 78 79 80 80 80 85 90 94 98 101 104 109 112 110 109 107 106 102 101 101 101 99 100 103 98 100 99 97 93 90 86 80 83 83 78 75 73
104 105 104 103 100 96 93 89 83 82 85 81 79 88 87 87 90 97 99 99 100 100 103 109 110 108 106 104 104 101 99 99 101 100 99 99 93 91 88 85 85 85 87 80 76
97 101 104 105 104 103 99 97 92 90 86 87 88 78 86 88 88 88 93 96 93 93 95 97 100 105 110 109 107 104 103 99 98 99 97 94 93 93 88 89 87 86 89 88 80
84 91 93 94 94 99 100 100 98 95 92 89 86 83 85 85 91 91 90 90 92 92 90 89 92 94 100 107 108 107 106 105 101 98 93 91 89 86 91 96 92 90 88 92 86
73 75 78 82 87 88 91 98 100 97 93 93 91 89 86 85 85 91 90 90 91 88 86 85 83 87 88 94 99 102 105 105 105 100 92 87 85 91 93 90 89 90 90 89 89
68 69 65 66 71 75 81 88 93 94 94 94 92 92 90 85 89 88 91 93 93 92 89 85 83 79 82 84 86 90 91 98 103 99 92 83 84 90 91 89 89 89 91 88 87
46 50 54 56 60 67 74 79 85 87 89 90 93 93 92 87 87 84 86 87 88 88 91 86 85 75 72 71 72 78 84 93 94 90 87 83 85 88 88 89 90 91 89 85 84
34 34 40 46 54 60 66 72 77 77 81 85 89 87 86 87 86 81 83 83 84 84 84 80 81 75 71 62 65 73 77 84 84 81 81 78 77 78 78 84 90 91 88 84 82
25 27 29 34 42 51 57 63 69 72 72 78 82 82 82 79 78 76 77 78 79 79 77 72 72 69 62 62 70 71 73 76 75 74 76 70 68 68 72 77 84 87 86 85 85
18 17 20 24 32 37 45 54 59 63 65 69 74 69 67 71 69 68 67 68 68 69 68 60 62 58 62 62 63 65 68 68 69 68 68 65 65 66 66 65 72 79 82 81 83
13 9 10 15 20 29 37 38 38 46 49 53 58 56 53 53 53 52 52 52 53 54 51 53 50 51 48 51 54 57 61 62 58 55 53 53 53 54 54 57 61 64 69 73 78
12 3 3 7 14 21 26 26 30 36 43 42 41 41 34 32 36 39 41 43 44 44 39 43 42 41 46 44 45 45 45 46 45 46 46 44 46 48 50 52 56 59 62 64 64
21 13 8 7 10 14 19 23 27 32 33 28 29 27 26 28 29 32 35 38 32 32 36 33 33 36 33 36 36 35 35 38 39 40 39 38 42 44 47 49 49 51 54 56 57
31 22 17 15 16 18 19 22 24 26 23 22 26 26 28 28 31 32 29 26 30 29 23 24 26 27 28 27 27 26 27 28 30 31 31 32 34 35 37 38 41 45 49 50 51
42 33 25 22 19 18 22 24 26 27 28 28 29 31 30 30 28 27 26 24 23 19 20 21 20 20 17 15 17 18 20 22 25 27 29 31 32 34 36 39 42 45 47 49 51
49 41 35 33 29 29 30 29 27 26 29 30 28 29 32 31 27 24 23 21 17 16 14 14 12 12 12 11 12 15 18 20 22 22 24 25 26 28 31 35 40 42 44 48 52
54 50 45 39 36 35 33 33 32 32 32 34 32 31 30 27 25 23 21 18 16 14 13 11 8 7 5 4 8 11 13 14 14 15 16 17 21 23 24 25 26 26 31 37 41
62 59 53 51 45 42 40 37 35 33 33 31 31 29 27 27 25 23 22 16 13 13 12 12 10 6 4 5 5 5 5 5 6 5 8 10 11 13 16 19 20 23 28 31 35
58 60 58 55 51 48 44 40 38 38 35 34 31 29 29 26 22 19 20 20 19 19 18 16 14 10 6 6 6 5 2 2 1 2 1 3 6 10 14 18 20 25 28 35 38
50 52 48 46 44 43 40 38 37 35 35 30 28 28 29 28 29 26 25 24 23 22 19 19 15 12 11 13 11 10 8 8 7 8 9 4 7 11 15 16 20 25 34 41 42
54 52 50 47 43 40 38 38 40 41 42 43 41 38 37 36 36 34 31 29 27 26 22 21 19 18 19 18 17 13 15 16 16 17 16 13 10 8 15 14 10 20 34 35 43
63 60 56 55 49 46 44 46 47 47 48 48 49 48 46 43 44 42 39 36 35 33 30 29 28 28 29 27 25 24 25 25 22 21 20 16 12 6 10 7 6 18 32 34 41
68 64 63 63 62 59 55 52 57 58 56 56 55 55 56 53 50 47 45 44 42 39 40 37 37 36 35 32 30 29 28 28 27 27 25 25 22 12 7 9 4 15 4 28 27
73 71 68 69 68 67 64 64 65 66 65 65 64 63 61 62 59 58 55 53 52 50 49 47 46 45 43 41 38 37 37 37 38 38 35 38 39 31 15 3 5 6 13 16 35
70 69 69 69 68 68 67 67 69 69 69 70 69 66 64 64 62 61 59 58 56 54 52 51 50 48 48 46 48 47 43 41 39 38 37 38 41 39 38 31 22 11 7 18 29
Wind_Direction
285 279 276 275 272 263 260 257 249 249 249 252 252 252 250 252 251 252 252 252 253 253 253 252 251 250 248 247 246 247 246 247 250 250 253 257 256 256 252 252 252 251 250 251 251
278 275 268 269 269 270 269 255 256 248 246 245 249 251 250 251 250 253 252 252 252 251 252 251 250 248 250 249 247 247 248 247 247 249 251 253 254 256 256 252 254 253 251 250 248
270 268 266 264 265 266 265 266 258 254 248 244 246 248 249 251 251 253 252 252 253 251 252 252 251 250 249 249 250 249 247 250 249 248 249 251 253 253 255 255 254 255 252 249 248
264 263 262 262 262 261 262 262 259 256 251 247 249 244 248 248 250 250 251 251 252 252 252 252 251 249 249 249 251 251 250 249 249 249 249 250 251 253 251 252 253 254 256 249 247
266 262 260 257 256 259 257 259 258 255 255 250 251 249 247 247 248 251 252 252 253 252 253 253 252 251 250 249 250 251 252 252 250 250 250 250 249 251 252 251 253 252 253 253 248
263 261 259 259 257 255 254 253 254 254 253 253 250 250 251 247 248 249 252 252 253 254 254 253 252 251 250 250 251 250 252 253 253 252 252 251 251 252 253 251 249 248 249 254 251
265 263 259 258 258 257 254 251 250 251 251 252 252 250 249 248 249 248 249 250 253 253 255 253 252 252 250 251 251 251 252 253 255 253 251 250 250 251 249 253 251 251 249 249 252
266 262 261 258 256 255 253 251 251 250 250 250 250 249 248 247 250 249 248 248 252 253 254 258 257 256 252 251 252 250 252 252 254 253 251 252 251 249 250 250 250 250 252 250 249
269 262 258 253 252 249 246 246 246 248 248 248 248 248 249 247 249 249 249 249 251 252 253 256 256 257 254 250 252 252 252 251 252 254 255 255 252 248 247 248 249 251 252 254 250
281 268 258 253 247 244 239 238 242 243 246 247 247 245 246 246 246 246 248 250 250 253 253 256 256 255 256 252 252 250 252 252 252 254 255 254 250 249 248 248 247 250 252 253 254
291 276 264 255 244 240 234 231 234 240 240 242 243 242 243 245 245 245 247 248 249 252 254 257 258 258 254 254 250 247 248 249 251 255 256 255 251 253 252 248 246 247 250 252 252
307 274 256 247 239 230 230 230 227 231 232 234 238 240 240 242 242 244 245 248 250 252 256 258 256 256 259 255 252 249 251 254 255 254 255 256 256 255 252 250 249 248 249 251 252
331 291 249 231 224 218 222 221 217 224 227 230 234 238 238 239 241 243 245 246 247 248 248 249 257 255 253 252 250 250 252 255 256 256 254 256 254 252 251 250 247 247 246 247 249
5 3 254 211 200 203 212 206 205 206 216 221 226 233 234 231 230 234 237 236 237 237 244 244 246 247 245 250 253 254 253 254 256 257 255 251 249 248 245 244 243 241 241 241 243
26 43 76 134 162 177 187 186 191 195 208 208 211 217 213 214 213 217 218 222 225 229 231 236 238 242 249 251 254 253 253 252 250 249 249 245 246 245 245 242 242 243 243 243 243
45 51 72 103 128 146 153 161 170 179 179 176 187 188 189 194 201 203 207 208 213 220 222 227 237 244 247 248 252 252 252 252 252 252 252 249 246 245 246 246 243 242 241 240 240
52 51 65 81 102 119 129 140 153 158 160 166 163 168 169 173 178 182 187 198 200 200 214 227 231 234 241 238 241 243 249 254 257 258 257 255 253 250 247 245 243 239 238 239 238
62 60 63 75 87 99 108 121 129 135 143 149 148 148 153 162 166 166 169 175 180 188 189 201 204 213 221 236 253 264 266 265 265 265 266 264 262 255 249 244 240 238 236 234 233
60 65 67 75 86 94 103 114 122 129 133 136 140 147 150 147 145 147 158 162 165 159 176 184 188 202 221 247 243 252 253 265 267 264 264 260 254 250 246 241 237 231 225 225 226
63 64 67 71 75 82 91 101 108 114 120 123 126 125 121 123 130 139 143 141 143 155 149 138 135 141 149 194 206 226 226 238 243 239 242 244 243 237 230 216 215 211 208 208 206
58 62 64 67 70 73 76 83 91 94 96 101 106 111 116 124 129 125 125 129 136 127 122 120 119 125 140 133 145 123 102 79 99 128 140 224 206 208 220 208 210 202 201 188 194
56 64 67 72 74 77 81 85 90 94 99 101 102 107 109 112 113 117 115 110 106 107 107 109 114 117 115 109 106 105 102 98 86 95 106 126 169 188 190 199 201 196 190 189 192
62 65 68 71 77 83 88 91 94 97 100 100 97 98 99 99 100 96 95 97 98 100 103 105 104 108 104 102 97 96 91 92 92 92 94 103 122 174 185 197 213 205 197 203 202
64 66 68 73 76 81 86 91 91 93 93 94 94 93 91 90 91 90 91 93 96 98 95 95 96 95 91 92 89 92 85 85 82 89 95 102 92 102 173 166 188 186 202 209 207
66 70 76 77 79 79 80 84 87 88 90 92 91 92 94 92 91 92 94 94 94 94 93 91 90 90 89 87 86 87 91 92 90 91 96 96 91 90 102 74 140 214 252 215 218
66 66 69 74 77 80 81 82 85 86 87 87 88 88 89 91 91 92 92 92 91 89 89 89 89 88 87 87 87 85 84 82 84 85 88 88 90 88 101 221 253 22 253 259 238
59 64 67 69 74 78 80 82 83 84 85 85 85 86 87 88 88 89 87 88 88 88 88 88 87 85 84 81 78 79 80 81 76 73 77 84 84 80 81 91 97 83 325 269 253
Height
10585 10582 10582 10581 10581 10586 10588 10590 10590 10591 10593 10591 10598 10607 10616 10618 10624 10629 10637 10641 10647 10653 10660 10666 10672 10675 10682 10690 10695 10699 10709 10715 10718 10722 10734 10727 10738 10739 10746 10750 10746 10751 10758 10765 10770
10554 10553 10554 10555 10557 10558 10561 10566 10568 10570 10571 10572 10575 10584 10591 10595 10599 10606 10613 10618 10625 10631 10639 10644 10651 10655 10661 10669 10675 10681 10687 10693 10698 10706 10713 10716 10721 10722 10730 10738 10730 10736 10747 10751 10758
10520 10520 10521 10524 10529 10532 10534 10537 10544 10544 10549 10554 10559 10561 10570 10572 10577 10584 10588 10594 10602 10610 10617 10623 10630 10636 10640 10647 10651 10661 10670 10670 10679 10685 10693 10699 10704 10708 10713 10721 10717 10717 10728 10738 10743
10476 10481 10486 10490 10496 10500 10504 10510 10516 10520 10526 10531 10538 10545 10547 10553 10555 10560 10566 10573 10580 10587 10593 10601 10607 10613 10620 10626 10630 10639 10646 10652 10658 10664 10670 10678 10688 10690 10697 10706 10701 10704 10704 10719 10726
10432 10435 10442 10452 10463 10467 10473 10481 10488 10494 10499 10505 10516 10525 10527 10532 10536 10539 10545 10552 10559 10566 10572 10578 10586 10592 10596 10603 10610 10618 10622 10631 10637 10642 10649 10659 10673 10673 10683 10685 10687 10693 10689 10696 10711
10392 10395 10403 10411 10423 10433 10443 10450 10459 10467 10474 10481 10491 10502 10505 10510 10518 10518 10526 10533 10539 10546 10552 10559 10564 10570 10577 10580 10589 10598 10602 10606 10615 10622 10634 10644 10655 10661 10665 10654 10666 10672 10680 10677 10690
10360 10363 10371 10380 10387 10398 10411 10420 10429 10439 10449 10456 10467 10476 10482 10495 10495 10499 10508 10512 10521 10528 10534 10540 10546 10550 10557 10561 10568 10575 10581 10588 10589 10600 10613 10624 10642 10637 10635 10644 10656 10659 10666 10671 10674
10331 10335 10342 10351 10356 10369 10380 10388 10400 10413 10426 10432 10445 10451 10460 10472 10475 10482 10488 10497 10504 10511 10517 10524 10529 10532 10538 10546 10551 10555 10562 10567 10566 10574 10587 10606 10624 10615 10622 10632 10638 10642 10643 10652 10663
10307 10310 10315 10322 10330 10341 10352 10362 10373 10387 10399 10412 10419 10429 10436 10451 10454 10466 10472 10480 10487 10494 10500 10507 10511 10518 10524 10530 10533 10540 10543 10542 10547 10556 10569 10588 10592 10591 10604 10615 10620 10620 10627 10631 10645
10288 10290 10291 10298 10306 10314 10327 10337 10348 10367 10379 10389 10395 10406 10417 10429 10436 10450 10458 10466 10472 10477 10483 10490 10496 10502 10507 10514 10518 10517 10521 10527 10535 10545 10550 10556 10567 10576 10590 10596 10599 10602 10608 10615 10623
10273 10273 10275 10281 10286 10294 10308 10319 10332 10344 10359 10366 10374 10384 10396 10410 10423 10435 10443 10451 10457 10462 10469 10478 10483 10488 10492 10497 10497 10501 10507 10512 10521 10529 10531 10543 10550 10562 10567 10571 10578 10585 10590 10596 10604
10266 10264 10265 10269 10274 10281 10291 10299 10316 10328 10337 10350 10356 10367 10383 10393 10409 10420 10432 10440 10446 10451 10458 10468 10469 10473 10477 10480 10486 10492 10497 10501 10507 10512 10518 10526 10533 10541 10546 10555 10561 10568 10575 10579 10586
10262 10260 10259 10260 10266 10273 10278 10291 10307 10317 10327 10338 10348 10359 10372 10387 10401 10413 10422 10429 10434 10441 10449 10454 10459 10460 10468 10471 10476 10481 10484 10487 10493 10499 10506 10512 10517 10522 10531 10536 10541 10547 10553 10561 10566
10261 10257 10257 10259 10263 10268 10274 10289 10300 10311 10319 10331 10344 10355 10368 10381 10392 10403 10412 10418 10424 10431 10440 10444 10448 10454 10456 10461 10466 10471 10475 10477 10482 10487 10492 10498 10501 10507 10513 10518 10524 10530 10536 10543 10551
10265 10262 10259 10260 10265 10270 10277 10287 10298 10309 10319 10332 10342 10352 10363 10373 10385 10393 10401 10408 10419 10426 10433 10440 10442 10444 10452 10456 10459 10464 10466 10468 10472 10476 10481 10487 10490 10495 10499 10505 10512 10517 10523 10530 10537
10271 10267 10265 10266 10268 10273 10280 10288 10298 10309 10320 10331 10340 10349 10359 10369 10379 10387 10398 10407 10414 10423 10430 10434 10440 10443 10447 10452 10456 10457 10458 10460 10463 10468 10474 10477 10481 10486 10490 10495 10499 10503 10509 10517 10523
10279 10280 10277 10276 10279 10283 10288 10296 10303 10311 10322 10331 10340 10348 10360 10370 10379 10389 10397 10406 10414 10421 10427 10433 10437 10439 10445 10449 10449 10450 10452 10455 10458 10462 10465 10467 10471 10476 10479 10482 10487 10492 10497 10504 10510
10292 10292 10291 10288 10291 10294 10299 10305 10313 10321 10328 10338 10347 10357 10364 10372 10382 10392 10400 10406 10414 10422 10427 10430 10434 10439 10439 10442 10445 10448 10449 10450 10451 10455 10456 10458 10461 10463 10465 10468 10472 10480 10487 10490 10496
10311 10308 10307 10306 10307 10308 10313 10319 10325 10332 10339 10346 10355 10362 10369 10378 10388 10396 10403 10410 10416 10421 10425 10429 10433 10434 10438 10442 10444 10445 10445 10447 10448 10451 10452 10453 10454 10456 10459 10463 10468 10474 10475 10479 10483
10329 10326 10326 10324 10328 10328 10330 10334 10339 10346 10352 10359 10365 10374 10380 10388 10395 10400 10406 10412 10417 10421 10424 10428 10432 10435 10440 10441 10443 10445 10445 10446 10448 10450 10450 10451 10453 10454 10458 10461 10464 10468 10470 10474 10478
10350 10342 10342 10341 10345 10348 10349 10354 10358 10361 10367 10371 10377 10383 10390 10396 10400 10406 10410 10415 10419 10422 10426 10430 10434 10437 10441 10443 10444 10446 10447 10448 10450 10451 10452 10453 10454 10455 10456 10459 10462 10466 10469 10473 10475
10368 10363 10363 10363 10365 10365 10369 10372 10373 10376 10378 10385 10389 10393 10396 10400 10405 10410 10415 10419 10422 10425 10430 10434 10438 10442 10445 10445 10447 10448 10450 10452 10454 10456 10455 10455 10457 10459 10461 10462 10465 10469 10470 10471 10475
10388 10386 10384 10382 10384 10385 10385 10386 10387 10390 10392 10393 10397 10401 10404 10408 10413 10417 10421 10425 10429 10433 10438 10441 10444 10447 10448 10449 10450 10452 10454 10455 10456 10457 10458 10460 10461 10463 10465 10467 10469 10473 10474 10474 10477
10409 10407 10406 10402 10406 10406 10404 10400 10403 10403 10404 10405 10406 10410 10416 10422 10422 10427 10432 10436 10440 10443 10447 10449 10451 10452 10451 10453 10455 10457 10457 10458 10459 10461 10463 10466 10468 10467 10469 10472 10475 10476 10477 10479 10482
10440 10437 10432 10428 10425 10424 10425 10422 10417 10419 10423 10421 10424 10424 10425 10432 10437 10442 10446 10448 10451 10454 10454 10457 10457 10458 10459 10462 10463 10463 10463 10465 10467 10467 10468 10471 10471 10473 10472 10475 10478 10480 10481 10483 10486
10468 10464 10457 10450 10448 10447 10448 10443 10440 10440 10440 10440 10441 10444 10448 10448 10453 10456 10460 10462 10464 10465 10465 10467 10468 10469 10470 10472 10473 10472 10471 10473 10475 10475 10475 10476 10477 10477 10478 10481 10481 10487 10488 10490 10491
10498 10491 10486 10481 10477 10471 10469 10467 10463 10462 10461 10461 10462 10466 10468 10470 10472 10473 10475 10477 10478 10479 10479 10480 10482 10483 10482 10483 10483 10482 10483 10484 10484 10484 10484 10484 10485 10486 10486 10486 10490 10492 10493 10494 10491